Weather History for KHLG - April, 2014

Change the Weather History Date:

Tuesday, April 15, 2014

  Actual Average Record
Temperature  
Mean Temperature 44 °F 51 °F  
Max Temperature 63 °F 61 °F 81 °F (2003)
Min Temperature 25 °F 41 °F 25 °F (2014)
Degree Days  
Heating Degree Days 21 14  
Month to date heating degree days 186 246  
Since 1 July heating degree days 5585 5186  
Cooling Degree Days 0    
Month to date cooling degree days 11  
Year to date cooling degree days 11  
Moisture  
Dew Point 32 °F    
Average Humidity 77    
Maximum Humidity 96    
Minimum Humidity 58    
Precipitation  
Precipitation 0.17 in 0.10 in 1.02 in (1983)
Month to date precipitation 2.05 1.53  
Sea Level Pressure  
Sea Level Pressure 29.84 in    
Wind  
Wind Speed 13 mph (WNW)    
Max Wind Speed 23 mph    
Max Gust Speed 31 mph    
Visibility 5 miles    
Events Rain , Snow    
T = Trace of Precipitation, MM = Missing Value Source: NWS Daily Summary

Daily Weather History Graph

Daily Weather History Graph

Search for Another Location

Airport or City:

Trip Planner

Search our weather history database for the weather conditions in past years. The results will help you decide how hot, cold, wet, or windy it might be!

Date:

Astronomy

Apr. 15, 2014 Rise Set
Actual Time 6:44 AM EDT 8:01 PM EDT
Civil Twilight 6:16 AM EDT 8:29 PM EDT
Nautical Twilight 5:42 AM EDT 9:03 PM EDT
Astronomical Twilight 5:07 AM EDT 9:38 PM EDT
Moon 8:40 PM EDT (4/15) 6:51 AM EDT (4/15)
Length of Visible Light 14h 13m
Length of Day
13h 16m
Full, 100% of the Moon is Illuminated
Apr 15
Full
Apr 22
Last Quarter
Apr 29
New
May 6
First Quarter
May 14
Full

Hourly Weather History & Observations

Time (EDT) Temp. Windchill Dew Point Humidity Pressure Visibility Wind Dir Wind Speed Gust Speed Precip Events Conditions
12:53 AM 62.1 °F - 53.1 °F 72% 29.60 in 10.0 mi South 10.4 mph - N/A   Mostly Cloudy
1:53 AM 62.1 °F - 53.1 °F 72% 29.58 in 10.0 mi South 11.5 mph - N/A   Mostly Cloudy
2:53 AM 63.0 °F - 53.1 °F 70% 29.55 in 10.0 mi SSW 15.0 mph 24.2 mph 0.00 in   Scattered Clouds
3:53 AM 59.0 °F - 53.1 °F 81% 29.55 in 10.0 mi WNW 13.8 mph 20.7 mph N/A   Overcast
4:04 AM 55.0 °F - 52.0 °F 89% 29.57 in 9.0 mi WNW 13.8 mph - N/A   Overcast
4:14 AM 53.1 °F - 51.1 °F 93% 29.58 in 7.0 mi WNW 20.7 mph 31.1 mph 0.00 in Rain Light Rain
4:53 AM 46.9 °F - 45.0 °F 93% 29.58 in 10.0 mi WNW 13.8 mph 21.9 mph 0.00 in Rain Light Rain
5:20 AM 46.0 °F 39.3 °F 42.1 °F 86% 29.61 in 8.0 mi WNW 16.1 mph - 0.01 in Rain Light Rain
5:53 AM 44.1 °F 37.7 °F 42.1 °F 93% 29.61 in 6.0 mi WNW 12.7 mph - 0.02 in Rain Light Rain
6:48 AM 39.2 °F 30.5 °F 37.4 °F 93% 29.64 in 4.0 mi NW 16.1 mph - 0.04 in Rain Light Rain
6:53 AM 39.9 °F 31.1 °F 37.9 °F 93% 29.65 in 4.0 mi NW 17.3 mph - 0.04 in Rain Light Rain
7:08 AM 39.0 °F 31.0 °F 37.9 °F 96% 29.67 in 5.0 mi NW 13.8 mph - 0.00 in Rain Light Rain
7:48 AM 35.6 °F 26.6 °F 33.8 °F 93% 29.71 in 6.0 mi NW 13.8 mph - 0.01 in Rain Light Rain
7:53 AM 35.1 °F 26.4 °F 33.1 °F 92% 29.73 in 5.0 mi NW 12.7 mph - 0.02 in Rain Light Rain
8:09 AM 35.1 °F 25.2 °F 33.1 °F 92% 29.74 in 3.0 mi NW 16.1 mph 23.0 mph 0.02 in Rain Light Rain
8:36 AM 34.0 °F 27.2 °F 33.1 °F 96% 29.75 in 7.0 mi WNW 8.1 mph - 0.04 in Rain Light Rain
8:53 AM 34.0 °F 24.2 °F 32.0 °F 92% 29.78 in 5.0 mi WNW 15.0 mph 21.9 mph 0.05 in Rain Light Rain
9:05 AM 33.1 °F 23.4 °F 32.0 °F 96% 29.78 in 2.5 mi WNW 13.8 mph - 0.01 in Snow Light Snow
9:08 AM 33.1 °F 24.9 °F 30.9 °F 92% 29.78 in 1.8 mi NW 10.4 mph - 0.01 in Snow Light Snow
9:16 AM 33.1 °F 24.4 °F 30.9 °F 92% 29.78 in 2.0 mi WNW 11.5 mph - 0.01 in Snow Light Snow
9:28 AM 33.1 °F 24.9 °F 32.0 °F 96% 29.79 in 1.5 mi WNW 10.4 mph - 0.02 in Snow Light Snow
9:38 AM 33.1 °F 23.4 °F 30.9 °F 92% 29.79 in 1.5 mi WNW 13.8 mph 23.0 mph 0.02 in Snow Light Snow
9:51 AM 33.8 °F 24.8 °F 30.2 °F 87% 29.80 in 1.8 mi NW 12.7 mph - 0.02 in Snow Light Snow
9:53 AM 33.1 °F 23.9 °F 30.9 °F 92% 29.81 in 1.8 mi NNW 12.7 mph - 0.02 in Snow Light Snow
9:55 AM 33.1 °F 22.6 °F 30.9 °F 92% 29.80 in 2.0 mi NNW 16.1 mph 19.6 mph 0.00 in Snow Light Snow
10:04 AM 33.1 °F 23.4 °F 30.9 °F 92% 29.81 in 4.0 mi NW 13.8 mph - 0.00 in Snow Light Snow
10:14 AM 33.1 °F 23.4 °F 30.0 °F 89% 29.83 in 8.0 mi NW 13.8 mph 19.6 mph 0.00 in Snow Light Snow
10:31 AM 33.1 °F 24.9 °F 30.9 °F 92% 29.84 in 4.0 mi NW 10.4 mph - 0.00 in Snow Light Snow
10:40 AM 33.1 °F 26.9 °F 30.9 °F 92% 29.85 in 2.5 mi WNW 6.9 mph - 0.00 in Snow Light Snow
10:53 AM 33.1 °F 23.4 °F 30.9 °F 92% 29.86 in 2.0 mi WNW 13.8 mph 20.7 mph 0.00 in Snow Light Snow
11:02 AM 34.0 °F 25.0 °F 30.9 °F 89% 29.85 in 3.0 mi NW 12.7 mph 23.0 mph 0.01 in Snow Light Snow
11:08 AM 34.0 °F 26.6 °F 30.9 °F 89% 29.85 in 2.5 mi WNW 9.2 mph - 0.01 in Snow Light Snow
11:15 AM 34.0 °F 26.0 °F 30.0 °F 85% 29.86 in 3.0 mi NW 10.4 mph - 0.01 in Snow Light Snow
11:53 AM 34.0 °F 23.8 °F 30.9 °F 89% 29.88 in 7.0 mi WNW 16.1 mph 21.9 mph 0.01 in   Overcast
12:07 PM 34.0 °F 25.5 °F 30.0 °F 85% 29.86 in 10.0 mi WNW 11.5 mph 21.9 mph N/A   Overcast
12:17 PM 33.1 °F 23.4 °F 30.0 °F 89% 29.86 in 3.0 mi WNW 13.8 mph - 0.00 in Snow Light Snow
12:25 PM 34.0 °F - 28.9 °F 82% 29.87 in 7.0 mi North - - 0.00 in   Overcast
12:53 PM 32.0 °F 21.6 °F 28.0 °F 85% 29.91 in 1.5 mi WNW 15.0 mph 25.3 mph 0.00 in Snow Light Snow
1:00 PM 32.0 °F 21.2 °F 28.0 °F 85% 29.88 in 2.0 mi NW 16.1 mph 25.3 mph 0.00 in Snow Light Snow
1:05 PM 33.1 °F 22.6 °F 28.0 °F 82% 29.89 in 1.5 mi West 16.1 mph - 0.00 in Snow Light Snow
1:12 PM 32.0 °F 22.5 °F 28.0 °F 85% 29.89 in 0.8 mi WNW 12.7 mph - 0.00 in Snow Light Snow
1:41 PM 30.9 °F 20.7 °F 28.9 °F 92% 29.93 in 0.8 mi WNW 13.8 mph 20.7 mph 0.00 in Snow Light Snow
1:53 PM 32.0 °F 23.0 °F 30.0 °F 92% 29.95 in 1.0 mi WNW 11.5 mph 19.6 mph 0.00 in Snow Light Snow
2:04 PM 32.0 °F 23.6 °F 28.9 °F 88% 29.92 in 0.8 mi NW 10.4 mph - 0.00 in Snow Light Snow
2:13 PM 32.0 °F 24.8 °F 28.9 °F 88% 29.92 in 1.8 mi NW 8.1 mph - 0.00 in Snow Light Snow
2:16 PM 32.0 °F 24.2 °F 30.0 °F 92% 29.91 in 3.0 mi NW 9.2 mph - 0.00 in Snow Light Snow
2:23 PM 32.0 °F 23.6 °F 28.9 °F 88% 29.91 in 3.0 mi NW 10.4 mph - 0.00 in Snow Light Snow
2:31 PM 32.0 °F 23.6 °F 28.0 °F 85% 29.92 in 2.5 mi West 10.4 mph - 0.00 in Snow Light Snow
2:45 PM 30.9 °F 19.8 °F 28.0 °F 89% 29.91 in 1.5 mi WNW 16.1 mph 20.7 mph 0.01 in Snow Light Snow
2:53 PM 30.9 °F 20.2 °F 28.0 °F 89% 29.94 in 3.0 mi WNW 15.0 mph 26.5 mph 0.01 in Snow Light Snow
3:53 PM 30.0 °F 19.1 °F 26.1 °F 85% 29.97 in 10.0 mi WNW 15.0 mph 24.2 mph 0.00 in   Overcast
4:53 PM 28.9 °F 17.3 °F 24.1 °F 82% 30.04 in 10.0 mi WNW 16.1 mph 24.2 mph N/A   Overcast
5:09 PM 30.0 °F 19.1 °F 23.0 °F 75% 30.00 in 10.0 mi WNW 15.0 mph - N/A   Overcast
5:39 PM 30.0 °F 20.0 °F 23.0 °F 75% 30.01 in 10.0 mi West 12.7 mph - N/A   Overcast
5:53 PM 30.0 °F 20.5 °F 21.9 °F 72% 30.05 in 10.0 mi WNW 11.5 mph 21.9 mph N/A   Overcast
6:53 PM 30.0 °F 17.9 °F 19.0 °F 64% 30.08 in 10.0 mi NW 18.4 mph 27.6 mph 0.00 in   Overcast
7:53 PM 28.0 °F 17.5 °F 17.1 °F 63% 30.12 in 10.0 mi West 12.7 mph - N/A   Mostly Cloudy
8:53 PM 28.9 °F 18.2 °F 16.0 °F 58% 30.17 in 10.0 mi WNW 13.8 mph 24.2 mph N/A   Mostly Cloudy
9:53 PM 28.0 °F 15.3 °F 17.1 °F 63% 30.21 in 10.0 mi WNW 18.4 mph 24.2 mph N/A   Overcast
10:53 PM 27.0 °F 20.5 °F 18.0 °F 69% 30.22 in 10.0 mi WNW 5.8 mph - N/A   Clear
11:53 PM 26.1 °F 20.5 °F 19.0 °F 75% 30.23 in 10.0 mi West 4.6 mph - N/A   Clear